Regional Weather Roundup
Issued by NWS

Home | Current Version | Previous Version | Text Only | Print | Product List | Glossary On
Versions: 1 2 3 4 5 6 7 8 9 10 11 12 13 14 15 16 17 18 19 20 21 22 23 24 25 26 27 28 29 30 31 32 33 34 35 36 37 38 39 40 41 42 43 44 45 46 47 48 49 50
000
ASUS44 KLUB 250610
RWRTX
WEST TEXAS WEATHER ROUNDUP
NATIONAL WEATHER SERVICE LUBBOCK TX
100 AM CDT THU MAY 25 2017

NOTE: "FAIR" INDICATES FEW OR NO CLOUDS BELOW 12,000 FEET WITH NO
SIGNIFICANT WEATHER AND/OR OBSTRUCTIONS TO VISIBILITY.

TXZ004-006>008-010-012-014-016-OKZ002-250700-
TEXAS PANHANDLE/OKLAHOMA PANHANDLE

CITY           SKY/WX    TMP DP  RH WIND       PRES   REMARKS
AMARILLO       CLEAR     59  38  45 SE14      29.66F
BORGER         CLEAR     64  44  48 SE16G23   29.63F
CANADIAN       CLEAR     57  50  77 NE3       29.65F
DALHART        CLEAR     55  42  61 S8        29.66F
DUMAS          CLEAR     58  40  51 SE10      29.64F
GUYMON         CLEAR     59  51  75 SE9       29.62S
HEREFORD       CLEAR     64  38  38 S10       29.67S
PAMPA          CLEAR     59  48  66 SE14      29.66F
PERRYTON       CLEAR     60  49  66 SE14      29.64S
$$

TXZ026-029-035-045-048-250700-
SOUTHERN PANHANDLE/SOUTH PLAINS/ROLLING PLAINS

CITY           SKY/WX    TMP DP  RH WIND       PRES   REMARKS
CHILDRESS      CLEAR     63  48  58 SE10      29.63F
SEMINOLE       CLEAR     69  42  36 S14       29.72S
LUBBOCK        CLEAR     71  34  25 S20       29.68F
PLAINVIEW      CLEAR     63  37  38 S9        29.67S
SNYDER         CLEAR     65  45  47 S10       29.70F
$$

TXZ052-054-060>062-072-078-127-140-154-169-250700-
PERMIAN BASIN/CONCHO VALLEY/BIG COUNTRY/EDWARDS PLATEAU

CITY           SKY/WX    TMP DP  RH WIND       PRES   REMARKS
ABILENE        CLEAR     69  46  43 S14       29.68F
BIG SPRING     CLEAR     68  45  42 S21       29.73S
BROWNWOOD      CLEAR     61  50  67 S8        29.71F
JUNCTION       CLEAR     64  50  60 CALM      29.77F
MIDLAND        CLEAR     71  44  37 S17       29.72F
ODESSA         CLEAR     71  44  37 S18       29.73F
SAN ANGELO     CLEAR     67  45  45 S13       29.72F
SONORA         CLEAR     64  46  52 CALM      29.82F
SWEETWATER     CLEAR     69  44  40 S17       29.72F
WINK           CLEAR     70  44  39 SE12      29.69F
$$

TXZ055-058-074-075-080-082-250700-
FAR WEST/SOUTHWEST MOUNTAINS/TRANS PECOS

CITY           SKY/WX    TMP DP  RH WIND       PRES   REMARKS
ALPINE         CLEAR     65  34  31 S8        29.92F
DRYDEN           N/A     67  51  56 N6        29.75F
EL PASO        CLEAR     87  10   5 W12       29.77S
FORT STOCKTON  CLEAR     69  46  43 S15       29.74F
GUADALUPE PASS CLEAR     75  23  14 SW5       29.90F
MARFA          CLEAR     56  31  38 CALM      29.92S
PECOS          CLEAR     66  26  22 CALM      29.68S
PRESIDIO       FAIR      77  37  23 N7        29.78S
$$

TXZ014-016-019-021>030-083-250700
TEXAS TECH WEST TEXAS MESONET/TEXAS PANHANDLE/NORTHERN SOUTH PLAINS

CITY           SKY/WX    TMP DP  RH WIND       PRES   REMARKS
$$

TXZ033>036-039>041-045>048-250700
TEXAS TECH WEST TEXAS MESONET/SOUTH PLAINS

CITY           SKY/WX    TMP DP  RH WIND       PRES   REMARKS
$$

TXZ031-032-036>038-042>044-250700-
TEXAS TECH WEST TEXAS MESONET/ROLLING PLAINS

CITY           SKY/WX    TMP DP  RH WIND       PRES   REMARKS
$$

TXZ052-054-060>062-072-078-127-140-154-169-250700-
TEXAS TECH WEST TEXAS MESONET/PERMIAN BASIN/
CONCHO VALLEY/BIG COUNTRY/EDWARDS PLATEAU

CITY           SKY/WX    TMP DP  RH WIND       PRES   REMARKS
$$

TXZ055-058-074-075-080-082-250700-
TEXAS TECH WEST TEXAS MESONET/FAR WEST/SOUTHWEST MOUNTAINS/TRANS PECOS

CITY           SKY/WX    TMP DP  RH WIND       PRES   REMARKS
$$




USA.gov is the U.S. government's official web portal to all federal, state and local government web resources and services.